Regional Weather Roundup
Issued by NWS

Home | Current Version | Previous Version | Graphics & Text | Print | Product List | Glossary On
Versions: 1 2 3 4 5 6 7 8 9 10 11 12 13 14 15 16 17 18 19 20 21 22 23 24 25 26 27 28 29 30 31 32 33 34 35 36 37 38 39 40 41 42 43 44 45 46 47 48 49 50
000
ASUS43 KTOP 100159
RWRKS

WEATHER ROUNDUP FOR KANSAS
NATIONAL WEATHER SERVICE GOODLAND KS
800 PM CST TUE FEB 09 2016

NOTE:  "FAIR" INDICATES FEW OR NO CLOUDS BELOW 12,000 FEET WITH NO
SIGNIFICANT WEATHER AND/OR OBSTRUCTIONS TO VISIBILITY.

KSZ001>006-013>018-027>032-041>047-100300-
NORTHWEST KANSAS

CITY           SKY/WX    TMP DP  RH WIND       PRES   REMARKS
GOODLAND       CLEAR     39  29  67 W12       30.21F WCI  32
HAYS           CLOUDY    32  16  51 SE8       30.26F
HILL CITY      CLOUDY    31  24  75 SE3       30.25S
RUSSELL        CLOUDY    29  20  69 SE8       30.26F
$$

KSZ061>065-074>080-084>089-100300-
SOUTHWEST KANSAS

CITY           SKY/WX    TMP DP  RH WIND       PRES   REMARKS
DODGE CITY     CLOUDY    32  20  61 SE6       30.26S
ELKHART          N/A     46  25  44 NW7         N/A
GARDEN CITY    CLEAR     37  28  70 NW5       30.24S
GREAT BEND     CLOUDY    32  18  55 E6        30.28S
LIBERAL        CLEAR     36  19  51 NW7       30.27R
$$

KSZ066>073-081>083-090>101-100300-
SOUTHEAST KANSAS

CITY           SKY/WX    TMP DP  RH WIND       PRES   REMARKS
CHANUTE        PTCLDY    27   7  42 NW13      30.31R WCI  16
COFFEYVILLE    CLEAR     30   9  41 N15       30.33R WCI  19
HUTCHINSON     CLOUDY    32  14  47 N5        30.31F
MEDICINE LODGE   N/A     35  20  54 CALM      30.28F
NEWTON         CLOUDY    25  10  54 N8        30.32S
PARSONS        CLEAR     28   9  44 N14       30.32R WCI  17
WICHITA INTL   CLOUDY    33  14  45 N9        30.32S
WICHITA JABRA  CLOUDY    27  14  58 N8        30.31S
WINFIELD       CLEAR     27  15  61 N7        30.33R
$$

KSZ007>012-019>026-033>040-048>060-102>105-100300-
NORTHEAST KANSAS

CITY           SKY/WX    TMP DP  RH WIND       PRES   REMARKS
CONCORDIA      CLOUDY    26  14  60 SW5       30.29F
EMPORIA        PTCLDY    22   8  55 NW6       30.30S
LAWRENCE       CLEAR     20   7  57 NW8       30.29S
MANHATTAN      MOCLDY    22  11  62 SW5       30.31F
OLATHE IND     CLEAR     23   7  50 NW13      30.27S WCI  11
OLATHE EXE     CLEAR     23   5  46 NW10      30.26R WCI  12
SALINA         CLOUDY    29  13  51 NW6       30.33S
TOPEKA BILLARD CLOUDY    25   7  46 NW6       30.30S
TOPEKA FORBES  CLOUDY    26   8  46 NW9       30.28F
$$



USA.gov is the U.S. government's official web portal to all federal, state and local government web resources and services.